Farmville, Virginia, United States (23901)
Lat: 37.30N, Lon: 78.39W
Wx Zone: VAZ060
Local Info
Past Weather Observations for Today

NOTE: This archive is for the closest National Weather Service station to Farmville. Information may differ from the station used for current weather conditions.

Click here for Long-term Archive

Time Weather Temperature Dewpoint Humidity Pressure Winds Precip Visibility
18:15
Clear
82°F / 28°C 68°F / 20°C 62% 30.01 in
(1016 mb)
Calm - 10SM
17:55
Clear
N/A N/A N/A 30.01 in
(1016 mb)
Calm - 10SM
12:10
Partly Cloudy
88°F / 31°C 66°F / 19°C 49% 30.09 in
(1019 mb)
Calm - 10SM
11:55
Partly Cloudy
88°F / 31°C 68°F / 20°C 52% 30.09 in
(1019 mb)
Calm - 10SM
10:35
Clear
86°F / 30°C 70°F / 21°C 59% 30.15 in
(1021 mb)
NE 5.8 mph
(NE 9 kph)
- 10SM
10:15
Clear
84°F / 29°C 70°F / 21°C 62% 30.15 in
(1021 mb)
N 4.6 mph
(N 7 kph)
- 10SM
09:55
Clear
82°F / 28°C 70°F / 21°C 66% 30.15 in
(1021 mb)
NE 3.5 mph
(NE 6 kph)
- 10SM
09:35
Clear
84°F / 29°C 70°F / 21°C 62% 30.15 in
(1021 mb)
Calm - 10SM
09:15
Clear
82°F / 28°C 72°F / 22°C 70% 30.12 in
(1020 mb)
NE 5.8 mph
(NE 9 kph)
- 10SM
08:55
Clear
81°F / 27°C 72°F / 22°C 74% 30.15 in
(1021 mb)
NE 5.8 mph
(NE 9 kph)
- 10SM
07:35
Clear
75°F / 24°C 73°F / 23°C 94% 30.15 in
(1021 mb)
NE 6.9 mph
(NE 11 kph)
- 10SM
07:15
Clear
75°F / 24°C 73°F / 23°C 94% 30.15 in
(1021 mb)
N 5.8 mph
(N 9 kph)
- 10SM
06:55
Clear
73°F / 23°C 73°F / 23°C 100% 30.12 in
(1020 mb)
N 4.6 mph
(N 7 kph)
- 10SM
06:35
Mostly Cloudy
73°F / 23°C 72°F / 22°C 94% 30.12 in
(1020 mb)
N 5.8 mph
(N 9 kph)
- 10SM
06:15
Overcast
N/A N/A N/A 30.12 in
(1020 mb)
NNW 3.5 mph
(NNW 6 kph)
- 10SM
05:55
Mostly Cloudy
N/A N/A N/A 30.12 in
(1020 mb)
N 3.5 mph
(N 6 kph)
- 10SM
04:35
Obscured
Fog And Mist
N/A N/A N/A 30.09 in
(1019 mb)
Calm - 3/4SM
04:15
Clear
Hazy
N/A N/A N/A 30.09 in
(1019 mb)
Calm - 5SM
03:55
Partly Cloudy
Hazy
N/A N/A N/A 30.09 in
(1019 mb)
Calm - 5SM
03:35
Mostly Cloudy
Hazy
N/A N/A N/A 30.12 in
(1020 mb)
Calm - 5SM
03:15
Overcast
Hazy
N/A N/A N/A 30.12 in
(1020 mb)
Calm - 5SM
02:55
Mostly Cloudy
Fog
N/A N/A N/A 30.12 in
(1020 mb)
Calm - 1/2SM
02:15
Clear
Hazy
N/A N/A N/A 30.12 in
(1020 mb)
Calm - 5SM
01:55
Clear
Fog And Mist
N/A N/A N/A 30.09 in
(1019 mb)
Calm - 2SM
01:35
Clear
Fog And Mist
N/A N/A N/A 30.09 in
(1019 mb)
Calm - 2 1/2SM
01:15
Clear
N/A N/A N/A 30.09 in
(1019 mb)
Calm - 7SM
00:55
Clear
Fog And Mist
N/A N/A N/A 30.09 in
(1019 mb)
Calm - 2SM
00:35
Clear
Hazy
N/A N/A N/A 30.09 in
(1019 mb)
Calm - 5SM
00:15
Clear
N/A N/A N/A 30.09 in
(1019 mb)
Calm - 10SM
Time Weather Temperature Dewpoint Humidity Pressure Winds Precip Visibility


Weather for websites

WeatherForYou.com, LLC is not responsible for any damages or problems caused by this service. Current weather conditions are obtained from the closest station including government and personal stations which may have varying degrees of accuracy. Weather forecasts are derived from the NOAA NDFD. Like all things, this site belongs to Jesus Christ... He just trusts us to maintain it. If you have any questions or comments email webmaster@weatherforyou.com

Copyright © 2016, WeatherForYou.com LLC. All rights reserved.